Home   Weather   Salem   Past weeks

Flag for USA Past Weather in Salem, Oregon, USA — Yesterday and Last 2 Weeks

Now
62 °F

Scattered clouds.


Feels Like: 62 °F
Forecast: 49 / 71 °F
Wind: 7 mph from Northwest

Location: McNary Field

Current Time: Sep 24, 2016 at 2:00:53 PM

Latest Report: Sep 24, 2016 at 12:56 PM


Visibility: 10 mi

Pressure: 30.36 "Hg

Humidity: 67%

Dew Point: 51 °F

Location of SalemLocation

Past Weather in Salem — Graph

°F

Salem Temperature Yesterday

Maximum temperature yesterday: 62 °F (at 5:56 PM)
Minimum temperature yesterday: 50 °F (at 2:56 AM)
Average temperature yesterday: 57 °F

High & Low Weather Summary for the Past Weeks

 TemperatureHumidityPressure
High89 °F (Sep 10, 4:56 PM)97% (Sep 24, 3:56 AM)30.38 "Hg (Sep 24, 3:56 AM)
Low45 °F (Sep 15, 6:56 AM)15% (Sep 13, 4:56 PM)29.86 "Hg (Sep 13, 4:56 PM)
Average62 °F63%30.08 "Hg
* Reported Sep 9 12:56 PM — Sep 24 12:56 PM, Salem, Weather by CustomWeather, © 2016

Note: Actual official high and low records may vary slightly from our data, if they occured in-between our weather recording intervals... More about our weather records

Advertising

Salem Weather History for the Previous 24 Hours

Scroll right to see more
 ConditionsComfort  
Time TempWeatherWind HumidityBarometerVisibility
12:56 PM
Sat, Sep 24
62 °FScattered clouds.7 mph67%30.36 "Hg10 mi
11:56 AM58 °FLow clouds.3 mph78%30.37 "Hg10 mi
10:56 AM55 °FFog.6 mph87%30.38 "Hg6 mi
9:56 AM54 °FFog.7 mph90%30.35 "Hg2 mi
8:56 AM52 °FFog.6 mph97%30.36 "Hg2 mi
7:56 AM51 °FFog.No wind96%30.34 "Hg1 mi
6:56 AM50 °FFog.6 mph96%30.32 "Hg1 mi
6:03 AM50 °FFog.6 mph96%30.31 "Hg1 mi
5:55 AM50 °FFog.6 mph96%30.32 "Hg2 mi
5:03 AM50 °FFog.5 mph93%30.31 "Hg0 mi
4:56 AM49 °FFog.5 mph93%30.31 "Hg1 mi
3:56 AM49 °FFog.No wind97%30.30 "Hg0 mi
3:04 AM48 °FFog.3 mph93%30.29 "Hg1 mi
2:56 AM47 °FClear.3 mph93%30.29 "Hg10 mi
1:56 AM50 °FClear.No wind93%30.29 "Hg10 mi
12:56 AM53 °FPassing clouds.No wind89%30.28 "Hg10 mi
11:56 PM
Fri, Sep 23
55 °FMostly cloudy.3 mph90%30.27 "Hg10 mi
10:56 PM55 °FClear.No wind87%30.25 "Hg10 mi
9:56 PM57 °FClear.5 mph81%30.24 "Hg10 mi
8:56 PM60 °FOvercast.6 mph75%30.22 "Hg10 mi
7:56 PM60 °FOvercast.8 mph72%30.18 "Hg10 mi
7:03 PM61 °FMostly cloudy.8 mph70%30.17 "Hg10 mi
5:56 PM62 °FOvercast.14 mph67%30.15 "Hg10 mi
4:56 PM61 °FOvercast.9 mph67%30.14 "Hg10 mi
3:56 PM61 °FOvercast.13 mph65%30.13 "Hg10 mi
2:56 PM61 °FOvercast.21 mph62%30.11 "Hg10 mi
Weather by CustomWeather, © 2016

See weather overviewHow to use our weather pages